#timestamp,LO_Frequency,Hit,StdDev 
1623366015.1,286047000.6,N
1623366016.0,286047000.6,N
1623366035.8,286046999.9,N
1623366055.6,286046999.7,N
1623366075.5,286046999.7,N
1623366095.3,286046999.9,N
1623366115.2,286046999.8,N
1623366135.9,286047000.9,N
1623366155.7,286047000.4,N
1623366175.6,286047002.5,Y
1623366195.4,286047001.2,P
1623366215.3,286047000.4,N
1623366235.1,286046998.8,N
1623366236.0,286046998.8,N
1623366255.8,286046998.8,N
1623366275.7,286046998.3,N
1623366295.5,286046998.9,N
1623366315.3,286046998.6,N
1623366335.2,286047000.8,N
1623366355.0,286046998.6,N
1623366355.9,286046998.6,N
1623366375.8,286047000.0,N
1623366395.6,286046998.9,N
1623366415.4,286047000.7,N
1623366435.3,286046998.4,N
1623366455.1,286047001.2,N
1623366475.8,286047000.6,N
1623366495.7,286047000.7,N
1623366515.5,286047000.8,N
1623366535.4,286047001.1,N
1623366555.2,286046998.3,N
1623366575.0,286046998.5,N
1623366575.9,286046998.5,N
1623366595.8,286047001.2,N
1623366615.6,286046998.7,N
1623366635.5,286046998.4,N
1623366655.3,286047000.5,N
1623366675.1,286046999.8,N
1623366695.9,286047001.0,N
1623366715.7,286047002.8,N
1623366735.6,286047000.8,N
1623366755.4,286047000.7,N
1623366775.2,286046998.6,N
1623366795.1,286047000.0,N
1623366796.0,286047000.0,N
1623366815.8,286046999.7,N
1623366835.6,286046999.7,N
1623366855.5,286047000.2,N
1623366875.3,286047001.1,N
1623366895.2,286047000.4,N
1623366915.0,286047000.6,N
1623366915.9,286047000.6,N
1623366935.8,286046998.3,N
1623366955.6,286046998.8,N
1623366975.4,286046996.7,N
1623366995.3,286046996.8,N
1623367015.1,286046996.8,N
1623367035.8,286046997.7,N
1623367055.7,286046997.2,N
1623367075.5,286046999.3,N
1623367095.4,286046998.3,N
1623367115.2,286047000.4,N
1623367135.0,286047002.5,N
1623367135.9,286047002.5,N
1623367155.8,286047001.5,N
1623367175.6,286047004.0,N
1623367195.5,286047004.4,N
1623367215.3,286047002.2,N
1623367235.1,286047002.8,N
1623367255.9,286047002.7,N
1623367275.7,286047000.2,N
1623367295.6,286047002.3,N
1623367315.4,286047002.4,N
1623367335.2,286046999.7,N
1623367355.1,286047001.6,N
1623367356.0,286047001.6,N
1623367375.8,286046999.7,N
1623367395.7,286047002.5,N
1623367415.5,286047002.1,N
1623367435.3,286047002.0,N
1623367455.2,286047003.2,N
1623367475.0,286047001.3,N
1623367475.9,286047001.3,N
1623367495.8,286047002.4,N
1623367515.6,286047002.6,N
1623367535.4,286047002.1,N
1623367555.3,286047001.8,N
1623367575.1,286047004.0,N
1623367595.9,286047002.6,N
1623367615.7,286047002.1,N
1623367635.5,286047000.3,N
1623367655.4,286046999.7,N
1623367675.2,286047001.9,N
1623367695.0,286047000.6,N
1623367695.9,286047000.6,N
1623367715.8,286047000.7,N
1623367735.6,286046998.5,N
1623367755.5,286046999.9,N
1623367775.3,286047000.6,N
1623367795.1,286046999.7,N
1623367815.9,286047001.4,N
1623367835.7,286047002.5,N
1623367855.5,286047002.5,N
1623367875.4,286047000.2,N
1623367895.2,286047000.6,N
1623367915.1,286047002.6,N
1623367916.0,286047002.6,N
1623367935.8,286047001.4,N
1623367955.6,286047005.9,Y
1623367975.5,286047003.5,P
1623367995.3,286047003.8,P
1623368015.1,286047004.1,P
1623368035.9,286047002.5,N
1623368055.7,286047002.4,N
1623368075.6,286047003.8,Y
1623368095.4,286046998.5,P
1623368115.2,286046999.3,N
1623368135.1,286046999.4,N
1623368136.0,286046999.4,N
1623368155.8,286046999.5,N
1623368175.7,286046998.6,N
1623368195.5,286046998.8,N
1623368215.3,286046999.1,N
1623368235.2,286046998.1,N
1623368255.0,286046999.6,N
1623368255.9,286046999.6,N
1623368275.7,286046998.8,N
1623368295.6,286047001.0,N
1623368315.4,286046998.7,N
1623368335.3,286046998.0,N
1623368355.1,286046997.9,N
1623368375.8,286046997.5,N
1623368395.7,286046994.9,Y
1623368415.5,286046998.4,P
1623368435.4,286046999.0,N
1623368455.2,286047001.2,P
1623368475.0,286046998.8,N
1623368475.9,286046998.8,N
1623368495.8,286046998.3,N
1623368515.6,286047000.5,N
1623368535.5,286047002.5,N
1623368555.3,286047002.7,N
1623368575.1,286047001.8,N
1623368595.9,286047003.7,N
1623368615.7,286047002.4,N
1623368635.5,286047000.7,N
1623368655.4,286047000.5,N
1623368675.2,286047001.0,N
1623368695.1,286046999.3,N
1623368696.0,286046999.3,N
1623368715.8,286046997.4,N
1623368735.6,286046995.2,N
1623368755.5,286046995.9,N
1623368775.3,286046995.2,N
1623368795.1,286046995.2,N
1623368815.9,286046995.4,N
1623368835.7,286046995.3,N
1623368855.6,286046999.5,N
1623368875.4,286046997.4,N
1623368895.2,286046997.1,N
1623368915.1,286046997.7,N
1623368916.0,286046997.7,N
1623368935.8,286046998.4,N
1623368955.6,286046997.6,N
1623368975.5,286046996.0,N
1623368995.3,286046995.3,N
1623369015.2,286046997.2,N
1623369035.9,286046997.5,N
1623369055.7,286046997.1,N
1623369075.6,286046996.9,N
1623369095.4,286046999.0,N
1623369115.2,286046997.4,N
1623369135.1,286046997.3,N
1623369136.0,286046997.3,N
1623369155.8,286046995.0,N
1623369175.7,286046995.6,N
1623369195.5,286046995.2,N
1623369215.3,286046997.8,N
1623369235.2,286046995.1,Y
1623369255.0,286047000.8,P
1623369255.9,286047000.8,N
1623369275.8,286046999.1,N
1623369295.6,286046998.1,N
1623369315.4,286047000.6,N
1623369335.3,286046998.2,N
1623369355.1,286046999.0,N
1623369375.9,286047001.0,N
1623369395.7,286046999.2,N
1623369415.6,286046999.3,N
1623369435.4,286046997.9,N
1623369455.2,286046995.5,Y
1623369475.1,286046997.6,P
1623369476.0,286046997.6,N
1623369495.8,286046999.5,N
1623369515.7,286046997.6,N
1623369535.5,286046997.2,Y
1623369555.3,286046999.1,P
1623369575.2,286046998.9,N
1623369595.0,286046998.2,P
1623369595.9,286046998.2,Y
